This is the latest recevied weather packets stored in our database for station/object DF7PN-WX. If no packets are shown the sender has not sent any weather packets the latest 10 day(s).
| Time | Temp. | Humidity | Pressure | Rain* | Wind** | Luminosity | Snow |
|---|---|---|---|---|---|---|---|
| 1777021634 | 12.78° C | 44% | 1022.8 hPa | - | - | - | - |
| 1777021334 | 12.78° C | 48% | 1022.9 hPa | - | - | - | - |
| 1777021034 | 12.22° C | 47% | 1022.9 hPa | - | - | - | - |
| 1777020734 | 12.22° C | 47% | 1022.9 hPa | - | - | - | - |
| 1777020434 | 12.22° C | 47% | 1023 hPa | - | - | - | - |
| 1777020134 | 11.67° C | 49% | 1023 hPa | - | - | - | - |
| 1777019834 | 12.22° C | 51% | 1023 hPa | - | - | - | - |
| 1777019534 | 11.67° C | 52% | 1022.9 hPa | - | - | - | - |
| 1777019234 | 11.67° C | 53% | 1023 hPa | - | - | - | - |
| 1777018934 | 11.67° C | 53% | 1023 hPa | - | - | - | - |
| 1777018634 | 11.67° C | 50% | 1023 hPa | - | - | - | - |
| 1777018333 | 11.67° C | 51% | 1022.8 hPa | - | - | - | - |
| 1777018033 | 11.67° C | 54% | 1022.9 hPa | - | - | - | - |
| 1777017733 | 11.11° C | 50% | 1022.8 hPa | - | - | - | - |
| 1777017433 | 11.11° C | 49% | 1022.8 hPa | - | - | - | - |
| 1777017134 | 10.56° C | 50% | 1022.8 hPa | - | - | - | - |
| 1777016833 | 10.56° C | 55% | 1022.8 hPa | - | - | - | - |
| 1777016533 | 10.56° C | 59% | 1022.8 hPa | - | - | - | - |
| 1777016233 | 10° C | 60% | 1022.9 hPa | - | - | - | - |
| 1777015933 | 10° C | 60% | 1022.8 hPa | - | - | - | - |
| 1777015633 | 10° C | 61% | 1022.8 hPa | - | - | - | - |
| 1777015333 | 10° C | 61% | 1022.8 hPa | - | - | - | - |
| 1777015033 | 9.44° C | 61% | 1022.8 hPa | - | - | - | - |
| 1777014733 | 9.44° C | 63% | 1022.9 hPa | - | - | - | - |
| 1777014433 | 9.44° C | 68% | 1023 hPa | - | - | - | - |
* Rain since midnight (hover to see other rain measurements)
** Current wind speed in m/s (hover to see current wind gust speed)